"2009-01-01 00:00:00",501482,3.459,320.8,11.62,0.991,7.578,103.6378,8.59,9.76,16.42,0,110,13.37,9.37,282.8
"2009-01-01 00:00:30",501483,3.391,311.1,17.69,0.929,8.34,103.5949,8.48,9.75,16.67,0,110.1,13.37,9.26,273.1
"2009-01-01 00:01:00",501484,3.277,290.4,23.59,1.48,9.67,103.5602,8.39,9.57,16.65,0,110,13.38,9.17,252.4
"2009-01-01 00:01:30",501485,3.483,217.5,17.19,1.453,10.87,103.5475,8.36,9.67,16.9,0,110,13.38,9.14,179.5
"2009-01-01 00:02:00",501486,5.935,228.4,15.63,1.565,12.04,103.5422,8.34,9.69,16.34,0,110,13.38,9.12,190.4
"2009-01-01 00:02:30",501487,5.912,188.2,28.84,1.465,12.18,103.5877,8.46,9.72,14.3,0,110,13.38,9.24,150.2
"2009-01-01 00:03:00",501488,1.805,122.6,80.3,1.806,8.12,103.6161,8.53,9.58,16.12,0,110,13.38,9.31,84.6
"2009-01-01 00:03:30",501489,1.035,10.94,54.81,0.764,7.286,103.597,8.48,9.47,16.68,0,110,13.41,9.27,332.9
"2009-01-01 00:04:00",501490,1.917,132.1,14.17,1.103,8.4,103.5722,8.42,9.55,16.87,0,110,13.38,9.20,94.1
"2009-01-01 00:04:30",501491,2.667,120.1,9.86,1.034,8.81,103.573,8.42,9.47,16.83,0,110,13.38,9.20,82.1
"2009-01-01 00:05:00",501492,4.01,133,5.408,0.815,8.92,103.5773,8.43,9.46,16.79,0,110,13.38,9.21,95.0
"2009-01-01 00:05:30",501493,5.014,142.2,6.716,1.271,11.61,103.5814,8.44,9.49,16.83,0,110,13.38,9.23,104.2
"2009-01-01 00:06:00",501494,3.916,126.9,8.25,1.217,12,103.5686,8.41,9.59,17.06,0,110,13.38,9.19,88.9
"2009-01-01 00:06:30",501495,2.352,128.1,14.45,1.263,9.73,103.5585,8.39,9.42,16.9,0,110,13.38,9.17,90.1
"2009-01-01 00:07:00",501496,0.932,146.1,41.23,0.273,7.337,103.5554,8.38,9.29,16.73,0,110,13.41,9.16,108.1
"2009-01-01 00:07:30",501497,0.707,172.7,39.57,0.251,7.026,103.5566,8.38,9.29,16.73,0,110,13.41,9.16,134.7
"2009-01-01 00:08:00",501498,2.402,136.5,13.63,1.067,9.07,103.5563,8.38,9.33,16.75,0,110,13.38,9.16,98.5
"2009-01-01 00:08:30",501499,4.313,143.6,15.59,1.681,9.68,103.5569,8.38,9.38,16.75,0,110,13.38,9.16,105.6
"2009-01-01 00:09:00",501500,4.042,155.2,11.12,0.441,8.09,103.5572,8.38,9.27,16.47,0,110,13.42,9.16,117.2
"2009-01-01 00:09:30",501501,4.579,159.9,11.21,1.195,11.97,103.5693,8.41,9.51,16.35,0,110,13.38,9.19,121.9
"2009-01-01 00:10:00",501502,5.38,167,8.15,1.142,12.81,103.575,8.43,9.6,16.77,0,110,13.38,9.21,129.0
"2009-01-01 00:10:30",501503,5.066,161.8,8.89,0.899,11.69,103.5846,8.45,9.43,16.71,0,110,13.38,9.23,123.8
"2009-01-01 00:11:00",501504,5.523,138.5,5.342,0.542,7.899,103.5894,8.46,9.3,16.19,0,110,13.42,9.25,100.5
"2009-01-01 00:11:30",501505,6.865,140.6,7.03,1.461,9.95,103.5908,8.47,9.45,16.09,0,110,13.38,9.25,102.6
"2009-01-01 00:12:00",501506,5.465,137,8.43,0.94,9.46,103.5908,8.47,9.45,16.01,0,110,13.39,9.25,99.0
"2009-01-01 00:12:30",501507,4.825,128.3,14.53,0.961,10.15,103.6015,8.5,9.42,15.86,0,110,13.39,9.28,90.3
"2009-01-01 00:13:00",501508,5.388,99.7,10.97,0.975,12.88,103.6235,8.55,9.62,16.01,0,110,13.39,9.33,61.7
"2009-01-01 00:13:30",501509,5.534,90.9,11.17,1.198,12.33,103.6247,8.55,9.65,15.9,0,110,13.39,9.34,52.9
"2009-01-01 00:14:00",501510,4.279,82.6,12.27,1.179,10.53,103.6247,8.55,9.5,15.61,0,110,13.39,9.34,44.6
"2009-01-01 00:14:30",501511,2.589,80.3,12.25,0.426,7.827,103.6247,8.55,9.4,15.46,0,110,13.43,9.34,42.3
"2009-01-01 00:15:00",501512,3.518,77.35,13.26,1.512,9.32,103.6399,8.59,9.45,15.17,0,110,13.39,9.38,39.3
"2009-01-01 00:15:30",501513,3.805,67.11,10.04,1.361,9.94,103.6571,8.64,9.59,14.39,0,110,13.4,9.42,29.1
"2009-01-01 00:16:00",501514,5.3,84.7,9.47,1.178,8.88,103.6664,8.66,9.49,14.21,0,110,13.4,9.44,46.7
"2009-01-01 00:16:30",501515,4.313,80.9,16.95,1.207,11.43,103.6902,8.72,9.73,14.47,0,110,13.4,9.50,42.9
"2009-01-01 00:17:00",501516,4.822,90.5,12.46,0.698,13.42,103.6927,8.73,9.84,14.74,0,110,13.4,9.51,52.5
"2009-01-01 00:17:30",501517,3.569,73.34,15.14,1.273,10.79,103.6942,8.73,9.69,14.76,0,110,13.4,9.51,35.3
"2009-01-01 00:18:00",501518,1.698,26.49,33.41,0.451,7.818,103.7032,8.76,9.61,14.62,0,110,13.43,9.54,348.5
"2009-01-01 00:18:30",501519,2.786,302.1,23.24,0.537,8.04,103.7245,8.81,9.72,13.91,0,110,13.43,9.59,264.1
"2009-01-01 00:19:00",501520,2.637,289.2,29.11,1.61,9.98,103.7338,8.83,9.68,13.4,0,110,13.4,9.62,251.2
"2009-01-01 00:19:30",501521,1.598,348.1,38.99,1.219,10.17,103.7574,8.89,9.81,13.43,0,110,13.4,9.68,310.1
"2009-01-01 00:20:00",501522,2.654,21.39,35.94,1.075,8.44,103.7707,8.93,9.72,13.25,0,110,13.4,9.71,343.4
"2009-01-01 00:20:30",501523,4.008,45.21,29.92,1.456,10.5,103.7771,8.94,9.81,13.26,0,110,13.4,9.73,7.2
"2009-01-01 00:21:00",501524,6.504,3.675,15.37,1.816,13.88,103.8239,9.06,10.13,12.73,0,110,13.4,9.85,325.7
"2009-01-01 00:21:30",501525,6.144,332.9,8.53,1.155,12.3,103.8531,9.14,10.1,12.9,0,110,13.4,9.92,294.9
"2009-01-01 00:22:00",501526,3.557,351.5,14.54,1.386,8.65,103.8724,9.19,9.92,12.91,0,110,13.44,9.97,313.5
"2009-01-01 00:22:30",501527,4.584,337.7,16.67,1.477,9.98,103.8646,9.17,10.06,13.39,0,110,13.4,9.95,299.7
"2009-01-01 00:23:00",501528,3.403,319.6,17.31,1.269,9.89,103.8587,9.15,10.07,13.48,0,110,13.4,9.94,281.6
"2009-01-01 00:23:30",501529,2.299,330.4,36.15,0.351,8.03,103.8616,9.16,9.95,13.34,0,110,13.44,9.94,292.4
"2009-01-01 00:24:00",501530,2.687,8.33,89.8,1.205,10.46,103.8548,9.14,10.05,13.54,0,110,13.4,9.93,330.3
"2009-01-01 00:24:30",501531,3.229,108.9,12.01,1.467,11.06,103.8501,9.13,10.1,13.66,0,110,13.4,9.91,70.9
"2009-01-01 00:25:00",501532,2.476,97.1,12.91,1.413,10.13,103.8509,9.13,10.13,13.67,0,110,13.4,9.92,59.1
"2009-01-01 00:25:30",501533,3.429,69.96,31.44,1.488,11.74,103.8337,9.09,10.13,13.63,0,110,13.4,9.87,32.0
"2009-01-01 00:26:00",501534,3.651,16.33,18.53,1.055,10.31,103.8292,9.08,10.09,13.25,0,110,13.4,9.86,338.3
"2009-01-01 00:26:30",501535,4.82,23.88,14.55,1.123,8.96,103.8292,9.08,10.02,13.26,0,110,13.4,9.86,345.9
"2009-01-01 00:27:00",501536,4.741,105.2,25.94,1.81,10.69,103.8292,9.08,10,13.45,0,110,13.4,9.86,67.2
"2009-01-01 00:27:30",501537,3.683,145.2,11.06,1.796,10.24,103.8292,9.08,10.09,13.58,0,110,13.4,9.86,107.2
"2009-01-01 00:28:00",501538,4.884,130.1,8.82,1.251,10.27,103.834,9.09,10.04,13.47,0,110,13.4,9.87,92.1
"2009-01-01 00:28:30",501539,3.872,143.9,5.88,1.145,9.79,103.847,9.12,10.09,13.48,0,110,13.41,9.91,105.9
"2009-01-01 00:29:00",501540,6.67,138.5,9.25,1.214,12.26,103.8569,9.15,10.19,13.5,0,110,13.41,9.93,100.5
"2009-01-01 00:29:30",501541,5.334,131,7.092,1.38,11.23,103.862,9.16,10.16,13.42,0,110,13.41,9.95,93.0
"2009-01-01 00:30:00",501542,6.773,133.4,5.723,1.523,10.43,103.8631,9.16,10.13,13.39,0,110,13.41,9.95,95.4
"2009-01-01 00:30:30",501543,7.345,131.4,8.05,1.412,11,103.8631,9.16,10.22,13.57,0,110,13.41,9.95,93.4
"2009-01-01 00:31:00",501544,6.729,133.6,5.583,1.036,9.83,103.8631,9.16,10.13,13.4,0,110,13.41,9.95,95.6
"2009-01-01 00:31:30",501545,8.07,138.3,7.372,0.91,12.71,103.8631,9.16,10.13,13.4,0,110,13.41,9.95,100.3
"2009-01-01 00:32:00",501546,6.942,146.3,10.04,1.238,12.58,103.8631,9.16,10.23,13.4,0,110,13.41,9.95,108.3
"2009-01-01 00:32:30",501547,6.535,138.1,9.94,1.563,11.36,103.8631,9.16,10.2,13.13,0,110,13.41,9.95,100.1
"2009-01-01 00:33:00",501548,5.373,125.9,4.645,0.787,9.7,103.8676,9.18,10.21,13.05,0,110,13.41,9.96,87.9
"2009-01-01 00:33:30",501549,5.717,115.6,6.476,1.057,10.08,103.8798,9.21,10.09,12.9,0,110,13.41,9.99,77.6
"2009-01-01 00:34:00",501550,6.694,113.9,4.469,1.344,11.06,103.88,9.21,10.17,12.94,0,110,13.41,9.99,75.9
"2009-01-01 00:34:30",501551,6.64,129,13.55,1.349,11,103.8837,9.22,10.24,13.05,0,110,13.41,10.00,91.0
"2009-01-01 00:35:00",501552,6.011,123.2,8.18,1.185,10.82,103.8947,9.24,10.1,12.88,0,110,13.41,10.03,85.2
"2009-01-01 00:35:30",501553,6.617,120.5,8.5,1.432,12.09,103.897,9.25,10.37,13.07,0,110,13.41,10.03,82.5
"2009-01-01 00:36:00",501554,6.992,121.6,12.2,0.952,11.94,103.897,9.25,10.3,13.09,0,110,13.41,10.03,83.6
"2009-01-01 00:36:30",501555,7.648,110.9,10.41,1.619,10.59,103.8973,9.25,10.19,12.66,0,110,13.41,10.04,72.9
"2009-01-01 00:37:00",501556,7.012,85.6,14.42,2.232,10.72,103.9162,9.3,10.27,12.38,0,110,13.41,10.08,47.6
"2009-01-01 00:37:30",501557,4.608,72.19,13.66,1.103,10.75,103.928,9.33,10.29,12.32,0,110,13.41,10.11,34.2
"2009-01-01 00:38:00",501558,3.854,88.6,12.99,1.006,10.75,103.9314,9.34,10.31,12.14,0,110,13.41,10.12,50.6
"2009-01-01 00:38:30",501559,4.815,84.8,14.38,1.613,12.07,103.9447,9.37,10.38,12.35,0,110,13.41,10.16,46.8
"2009-01-01 00:39:00",501560,4.836,143.7,24.56,1.247,12.26,103.9501,9.39,10.48,12.59,0,110,13.41,10.17,105.7
"2009-01-01 00:39:30",501561,2.808,175.8,16.41,1.33,10.66,103.9625,9.42,10.4,12.34,0,110,13.41,10.20,137.8
"2009-01-01 00:40:00",501562,4.245,149.1,12.49,1.104,9.46,103.9648,9.42,10.33,12.12,0,110,13.4,10.21,111.1
"2009-01-01 00:40:30",501563,4.112,150.1,9.09,1.123,10.18,103.9693,9.44,10.35,12.06,0,110,13.41,10.22,112.1
"2009-01-01 00:41:00",501564,6.107,114,15.81,1.344,10.64,103.9933,9.5,10.34,11.94,0,110,13.4,10.28,76.0
"2009-01-01 00:41:30",501565,6.234,129.4,12.96,0.987,11.14,103.9986,9.51,10.47,12.07,0,110,13.4,10.30,91.4
"2009-01-01 00:42:00",501566,5.105,142.7,7.765,1.28,10.83,103.9986,9.51,10.36,11.84,0,110,13.4,10.30,104.7
"2009-01-01 00:42:30",501567,5.242,150,8.13,1.394,12.56,103.9986,9.51,10.61,11.98,0,110,13.4,10.30,112.0
"2009-01-01 00:43:00",501568,4.935,173.3,8.03,1.337,11.86,103.9986,9.51,10.48,11.76,0,110,13.41,10.30,135.3
"2009-01-01 00:43:30",501569,5.322,161.8,8.06,1.836,10.52,104.0054,9.53,10.53,11.85,0,110,13.4,10.31,123.8
"2009-01-01 00:44:00",501570,4.413,148.7,7.679,0.438,8.59,104.0099,9.54,10.41,11.72,0,110,13.41,10.32,110.7
"2009-01-01 00:44:30",501571,4.421,152.3,7.181,0.56,8.78,104.0195,9.56,10.41,11.51,0,110,13.41,10.35,114.3
"2009-01-01 00:45:00",501572,4.512,157,9.59,1.569,11.14,104.0266,9.58,10.56,11.57,0,110,13.41,10.37,119.0
"2009-01-01 00:45:30",501573,3.777,146.3,6.866,0.366,9.41,104.0322,9.6,10.49,11.41,0,110,13.45,10.38,108.3
"2009-01-01 00:46:00",501574,5.027,162.7,11.64,1.403,12.32,104.0325,9.6,10.62,11.5,0,110,13.41,10.38,124.7
"2009-01-01 00:46:30",501575,6.17,156.1,8.35,1.089,13.18,104.0325,9.6,10.71,11.67,0,110,13.41,10.38,118.1
"2009-01-01 00:47:00",501576,5.129,161.8,6.87,1.508,11.78,104.0325,9.6,10.58,11.47,0,110,13.41,10.38,123.8
"2009-01-01 00:47:30",501577,4.7,172.8,8.98,1.111,10.6,104.0339,9.6,10.62,11.42,0,110,13.41,10.39,134.8
"2009-01-01 00:48:00",501578,4.244,164.4,12.49,1.309,9.43,104.0483,9.64,10.49,11.26,0,110,13.41,10.42,126.4
"2009-01-01 00:48:30",501579,4.852,161.4,4.983,0.818,9.84,104.0517,9.65,10.64,11.45,0,110,13.41,10.43,123.4
"2009-01-01 00:49:00",501580,3.765,146.5,12.12,1.304,9.9,104.0574,9.66,10.52,11.29,0,110,13.41,10.45,108.5
"2009-01-01 00:49:30",501581,3.676,132.6,7.047,1.02,10.15,104.0585,9.66,10.58,11.28,0,110,13.41,10.45,94.6
"2009-01-01 00:50:00",501582,5.179,136.8,8.91,1.403,12.37,104.0639,9.68,10.6,11.25,0,110,13.41,10.46,98.8
"2009-01-01 00:50:30",501583,5.514,142.9,10.82,0.953,13.58,104.0667,9.68,10.81,11.45,0,110,13.42,10.47,104.9
"2009-01-01 00:51:00",501584,3.598,123,19.56,1.405,11.27,104.0664,9.68,10.64,11.31,0,110,13.42,10.47,85.0
"2009-01-01 00:51:30",501585,3.188,174.7,21.21,0.829,10.06,104.0667,9.68,10.66,11.33,0,110,13.41,10.47,136.7
"2009-01-01 00:52:00",501586,3.636,179.5,10.73,1.026,9.23,104.0664,9.68,10.56,11.14,0,110,13.41,10.47,141.5
"2009-01-01 00:52:30",501587,3.62,223.7,17.89,1.359,10.78,104.069,9.69,10.72,11.28,0,110,13.41,10.48,185.7
"2009-01-01 00:53:00",501588,2.388,265.1,55.44,1.293,8.92,104.0726,9.7,10.58,11.04,0,110,13.45,10.49,227.1
"2009-01-01 00:53:30",501589,4.625,228.6,10.42,1.682,9.34,104.0769,9.71,10.58,10.79,0,110,13.42,10.50,190.6
"2009-01-01 00:54:00",501590,6.026,221.9,7.298,1.289,11.6,104.0791,9.72,10.77,10.96,0,110,13.42,10.50,183.9
"2009-01-01 00:54:30",501591,6.786,214.6,9.46,1.156,13.93,104.0709,9.7,10.9,11.15,0,110,13.42,10.48,176.6
"2009-01-01 00:55:00",501592,6.956,200.6,10.53,1.167,12.73,104.0684,9.69,10.84,11.1,0,110,13.42,10.47,162.6
"2009-01-01 00:55:30",501593,6.102,187.5,9.05,1.456,11.04,104.0667,9.68,10.69,11.04,0,110,13.41,10.47,149.5
"2009-01-01 00:56:00",501594,4.766,202.1,30.79,1.379,10.45,104.0667,9.68,10.73,11.14,0,110,13.41,10.47,164.1
"2009-01-01 00:56:30",501595,4.323,220.5,11.77,1.198,8.49,104.0667,9.68,10.57,10.95,0,110,13.45,10.47,182.5
"2009-01-01 00:57:00",501596,5.771,228.8,6.562,0.62,8.97,104.0667,9.68,10.58,10.95,0,110,13.45,10.47,190.8
"2009-01-01 00:57:30",501597,8.48,238.2,7.67,1.58,12.54,104.0591,9.67,10.83,11.24,0,110,13.41,10.45,200.2
"2009-01-01 00:58:00",501598,9.22,236.5,6.514,1.414,13.75,104.0498,9.64,10.87,11.26,0,110,13.41,10.43,198.5
"2009-01-01 00:58:30",501599,10.08,239.1,6.755,1.424,13.66,104.0357,9.61,10.89,11.31,0,110,13.41,10.39,201.1
"2009-01-01 00:59:00",501600,8.51,222.5,5.478,1.74,11.49,104.0334,9.6,10.71,11.16,0,110,13.41,10.39,184.5
"2009-01-01 00:59:30",501601,6.336,219.2,6.753,0.618,9.13,104.0331,9.6,10.63,11.08,0,110,13.44,10.38,181.2
"2009-01-01 01:00:00",501602,5.47,222.6,4.891,0.633,8.79,104.0297,9.59,10.58,11.05,0,110,13.44,10.38,184.6
"2009-01-01 01:00:30",501603,5.012,234.6,10.46,1.212,11.11,104.0137,9.55,10.56,11.09,0,110,13.41,10.33,196.6
"2009-01-01 01:01:00",501604,7.508,250.2,15.12,2.225,12.59,104.0077,9.53,10.65,11.21,0,110,13.41,10.32,212.2
"2009-01-01 01:01:30",501605,7.852,267.7,8.06,1.264,11.74,104.0295,9.59,10.57,10.96,0,110,13.41,10.38,229.7
"2009-01-01 01:02:00",501606,8.2,267,10.81,1.491,12.96,104.0445,9.63,10.72,10.87,0,110,13.41,10.41,229.0
"2009-01-01 01:02:30",501607,9.3,243.5,8.57,1.076,12.94,104.06,9.67,10.79,11.01,0,110,13.41,10.45,205.5
"2009-01-01 01:03:00",501608,7.954,261.7,10.76,1.15,10.3,104.0714,9.7,10.62,10.83,0,110,13.41,10.48,223.7
"2009-01-01 01:03:30",501609,7.211,267.9,7.496,1.038,9.17,104.0705,9.69,10.66,11.01,0,110,13.41,10.48,229.9
"2009-01-01 01:04:00",501610,7.521,264.4,9.58,1.565,12.23,104.0705,9.69,10.74,11.03,0,110,13.41,10.48,226.4
"2009-01-01 01:04:30",501611,9.67,288.5,9.57,1.807,12.14,104.0723,9.7,10.79,11.04,0,110,13.42,10.48,250.5
"2009-01-01 01:05:00",501612,9.64,279,12.53,2.333,14.38,104.0785,9.71,10.81,11.12,0,110,13.42,10.50,241.0
"2009-01-01 01:05:30",501613,6.249,244.8,18.51,1.467,12.33,104.1135,9.8,10.85,11.02,0,110,13.42,10.59,206.8
"2009-01-01 01:06:00",501614,7.738,245.2,11.29,0.992,11.41,104.1381,9.87,10.8,10.73,0,110,13.41,10.65,207.2
"2009-01-01 01:06:30",501615,9.25,241.7,5.924,1.881,9.07,104.1412,9.88,10.68,10.46,0,110,13.45,10.66,203.7
"2009-01-01 01:07:00",501616,9.52,247.6,7.766,1.55,11.57,104.1407,9.87,10.87,10.54,0,110,13.41,10.66,209.6
"2009-01-01 01:07:30",501617,10.9,253.3,10.42,1.522,13.02,104.1378,9.87,10.99,10.7,0,110,13.41,10.65,215.3
"2009-01-01 01:08:00",501618,9.99,247.7,9.99,1.414,13.15,104.1364,9.86,10.94,10.65,0,110,13.42,10.65,209.7
"2009-01-01 01:08:30",501619,14.01,264.8,6.054,1.672,14.82,104.1355,9.86,11.02,10.88,0,110,13.41,10.65,226.8
"2009-01-01 01:09:00",501620,13.02,268.5,8.83,1.223,13.37,104.1369,9.86,10.97,11.05,0,110,13.41,10.65,230.5
"2009-01-01 01:09:30",501621,9.21,253.3,8.99,2.234,11.11,104.1347,9.86,10.91,10.88,0,110,13.41,10.64,215.3
"2009-01-01 01:10:00",501622,8.51,246.6,17.69,0.822,10.89,104.1351,9.86,10.75,10.89,0,110,13.41,10.65,208.6
"2009-01-01 01:10:30",501623,10.34,238.6,4.61,2.244,10.21,104.1381,9.87,10.91,10.87,0,110,13.41,10.65,200.6
"2009-01-01 01:11:00",501624,13,253.1,7.317,2.603,13.02,104.1374,9.87,10.96,10.99,0,110,13.41,10.65,215.1
"2009-01-01 01:11:30",501625,13.87,250.1,8.79,1.587,14.59,104.1371,9.86,11.08,11.16,0,110,13.41,10.65,212.1
"2009-01-01 01:12:00",501626,14.81,250.8,6.618,1.801,14.25,104.1386,9.87,10.99,11.01,0,110,13.41,10.66,212.8
"2009-01-01 01:12:30",501627,15.66,259.5,11.26,3.118,12.64,104.1394,9.87,11.03,11.12,0,110,13.41,10.66,221.5
"2009-01-01 01:13:00",501628,14.09,251.9,12.05,2.116,12.86,104.1416,9.88,10.91,10.99,0,110,13.41,10.66,213.9
"2009-01-01 01:13:30",501629,10.1,245.6,11.41,2.014,10.14,104.1439,9.88,10.83,10.92,0,110,13.41,10.67,207.6
"2009-01-01 01:14:00",501630,10.37,291.6,10.51,1.961,12.23,104.139,9.87,11.02,11.16,0,110,13.4,10.66,253.6
"2009-01-01 01:14:30",501631,12.71,291.3,7.126,1.504,13.15,104.1359,9.86,11.06,11.18,0,110,13.4,10.65,253.3
"2009-01-01 01:15:00",501632,13.1,299.1,10.94,2.481,13.2,104.1348,9.86,10.92,10.96,0,110,13.4,10.65,261.1
"2009-01-01 01:15:30",501633,9.76,290.1,9.92,1.453,12.92,104.1382,9.87,11.06,10.98,0,110,13.4,10.65,252.1
"2009-01-01 01:16:00",501634,11.74,295.8,8.85,1.915,12.43,104.1486,9.89,10.93,10.85,0,110,13.4,10.68,257.8
"2009-01-01 01:16:30",501635,9.59,283.8,9.54,1.084,9.86,104.1489,9.89,10.86,10.79,0,110,13.4,10.68,245.8
"2009-01-01 01:17:00",501636,9.16,281.7,13.44,1.377,13.08,104.1571,9.92,11.07,10.97,0,110,13.4,10.70,243.7
"2009-01-01 01:17:30",501637,8.53,275.3,13.83,1.546,12.1,104.1619,9.93,11.03,10.93,0,110,13.41,10.71,237.3
"2009-01-01 01:18:00",501638,9.14,278.2,6.36,0.965,10.26,104.1608,9.93,10.9,10.75,0,110,13.41,10.71,240.2
"2009-01-01 01:18:30",501639,10.44,290.4,9.3,2.172,12.82,104.1638,9.93,11.06,10.86,0,110,13.41,10.72,252.4
"2009-01-01 01:19:00",501640,12.91,296.9,7.879,1.385,12.75,104.1681,9.94,11.03,10.7,0,110,13.41,10.73,258.9
"2009-01-01 01:19:30",501641,10.77,298.3,2.401,0.71,9.58,104.1684,9.94,10.93,10.59,0,110,13.45,10.73,260.3
"2009-01-01 01:20:00",501642,9.89,299.2,9.92,1.753,12.93,104.1684,9.94,11.08,10.74,0,110,13.41,10.73,261.2
"2009-01-01 01:20:30",501643,7.465,270.5,12.97,1.078,12.05,104.1531,9.91,10.99,10.73,0,110.1,13.41,10.69,232.5
"2009-01-01 01:21:00",501644,4.825,275.4,13.48,1.174,9.11,104.1348,9.86,10.82,10.61,0,110,13.45,10.65,237.4
"2009-01-01 01:21:30",501645,5.792,295,19.47,1.545,11.6,104.1246,9.83,10.87,10.68,0,110,13.41,10.62,257.0
"2009-01-01 01:22:00",501646,7.618,279.8,11.69,1.423,12.56,104.1037,9.78,10.95,10.8,0,110,13.41,10.57,241.8
"2009-01-01 01:22:30",501647,11.05,284.9,16.93,1.961,12.67,104.1003,9.77,10.98,10.83,0,110,13.41,10.56,246.9
"2009-01-01 01:23:00",501648,12.54,288,6.275,2.216,12.07,104.1003,9.77,10.87,10.63,0,110,13.41,10.56,250.0
"2009-01-01 01:23:30",501649,15.21,296.2,6.817,1.425,12.73,104.1003,9.77,10.91,10.73,0,110,13.41,10.56,258.2
"2009-01-01 01:24:00",501650,12.45,303.4,9.27,1.464,11.74,104.0989,9.77,10.96,10.93,0,110,13.41,10.55,265.4
"2009-01-01 01:24:30",501651,11.64,298.3,12.12,1.532,12.97,104.0882,9.74,10.84,10.88,0,110,13.41,10.53,260.3
"2009-01-01 01:25:00",501652,9.73,289.9,6.419,1.48,12,104.0726,9.7,10.92,10.93,0,110,13.41,10.49,251.9
"2009-01-01 01:25:30",501653,8.33,302,8.3,1.444,10.71,104.0664,9.68,10.74,10.8,0,110,13.41,10.47,264.0
"2009-01-01 01:26:00",501654,8.95,288.4,7.899,0.748,8.91,104.0661,9.68,10.63,10.64,0,110,13.45,10.47,250.4
"2009-01-01 01:26:30",501655,10.5,295.9,5.216,1.489,11.71,104.0574,9.66,10.88,10.87,0,110,13.41,10.45,257.9
"2009-01-01 01:27:00",501656,9.4,298.5,4.929,1.696,13,104.0464,9.63,10.81,10.68,0,110,13.41,10.42,260.5
"2009-01-01 01:27:30",501657,9.51,293.2,8.5,1.362,11.54,104.0331,9.6,10.66,10.64,0,110,13.41,10.38,255.2
"2009-01-01 01:28:00",501658,9.56,284.1,9.61,1.306,12.32,104.0325,9.6,10.82,10.92,0,110,13.41,10.38,246.1
"2009-01-01 01:28:30",501659,9.41,275.1,6.804,1.422,12.24,104.0195,9.56,10.77,11.03,0,110,13.41,10.35,237.1
"2009-01-01 01:29:00",501660,7.22,265.2,5.18,0.851,9.29,103.9998,9.51,10.61,10.87,0,110,13.41,10.30,227.2
"2009-01-01 01:29:30",501661,8.87,270.3,8.96,1.71,11.13,103.9986,9.51,10.58,10.75,0,110,13.41,10.30,232.3
"2009-01-01 01:30:00",501662,7.03,292,7.344,1.611,12.17,103.9834,9.47,10.59,10.76,0,110,13.41,10.26,254.0
"2009-01-01 01:30:30",501663,7.107,292.6,11.42,2.079,10.15,103.967,9.43,10.56,10.72,0,110,13.41,10.21,254.6
"2009-01-01 01:31:00",501664,9.18,296.4,12.46,1.525,12.36,103.9845,9.47,10.64,10.72,0,110,13.41,10.26,258.4
"2009-01-01 01:31:30",501665,10.41,291.3,10.78,2.132,12.31,103.9896,9.49,10.66,10.82,0,110,13.41,10.27,253.3
"2009-01-01 01:32:00",501666,12.32,307.1,6.521,1.518,11.91,103.9842,9.47,10.6,10.83,0,110,13.4,10.26,269.1
"2009-01-01 01:32:30",501667,11.86,309.2,7.606,1.465,12.06,103.9741,9.45,10.68,10.89,0,110,13.4,10.23,271.2
"2009-01-01 01:33:00",501668,10.43,272.3,8.22,1.238,12.05,103.965,9.42,10.56,10.87,0,110,13.4,10.21,234.3
"2009-01-01 01:33:30",501669,9.07,274.1,9.95,1.526,10.95,103.9648,9.42,10.52,10.84,0,110,13.41,10.21,236.1
"2009-01-01 01:34:00",501670,10.86,270.5,9,1.677,11.7,103.9648,9.42,10.55,10.94,0,110,13.41,10.21,232.5
"2009-01-01 01:34:30",501671,11.76,285.9,9.31,1.007,12.53,103.9588,9.41,10.55,10.97,0,110,13.41,10.19,247.9
"2009-01-01 01:35:00",501672,10.4,287.6,7.301,1.584,11.27,103.9478,9.38,10.58,11,0,110,13.41,10.17,249.6
"2009-01-01 01:35:30",501673,9.08,292.3,5.922,1.266,11.15,103.9388,9.36,10.54,11.05,0,110,13.41,10.14,254.3
"2009-01-01 01:36:00",501674,10.4,289.1,8.66,1.756,11.12,103.9309,9.34,10.48,11.05,0,110,13.41,10.12,251.1
"2009-01-01 01:36:30",501675,9.28,292,11.73,1.263,10.5,103.9297,9.33,10.43,11.02,0,110,13.41,10.12,254.0
"2009-01-01 01:37:00",501676,8.37,279.5,7.623,1.418,10.46,103.9088,9.28,10.43,11.12,0,110,13.41,10.07,241.5
"2009-01-01 01:37:30",501677,12.22,290,7.063,1.822,12.78,103.897,9.25,10.43,11.09,0,110,13.41,10.03,252.0
"2009-01-01 01:38:00",501678,10.17,265.7,9.46,1.437,12.44,103.8964,9.25,10.51,11.12,0,110,13.41,10.03,227.7
"2009-01-01 01:38:30",501679,11.37,284.5,14.93,1.662,12.06,103.8806,9.21,10.37,11.07,0,110,13.41,9.99,246.5
"2009-01-01 01:39:00",501680,9.79,282,12.83,1.816,10.81,103.8781,9.2,10.32,11.05,0,110,13.41,9.99,244.0
"2009-01-01 01:39:30",501681,10.51,279,6.632,1.537,10.64,103.8659,9.17,10.28,11.11,0,110,13.41,9.96,241.0
"2009-01-01 01:40:00",501682,10.49,282.9,13.99,1.763,11.42,103.8631,9.16,10.32,11.19,0,110,13.41,9.95,244.9
"2009-01-01 01:40:30",501683,9.15,301.4,6.752,1.375,12.03,103.862,9.16,10.35,11.39,0,110,13.41,9.95,263.4
"2009-01-01 01:41:00",501684,10.14,319.9,10.35,1.76,12.29,103.8382,9.1,10.33,11.38,0,110,13.41,9.88,281.9
"2009-01-01 01:41:30",501685,6.631,307.2,14.63,1.101,10.4,103.8298,9.08,10.21,11.33,0,110,13.41,9.86,269.2
"2009-01-01 01:42:00",501686,6.374,298.3,7.946,1.437,9.6,103.8292,9.08,10.16,11.32,0,110,13.41,9.86,260.3
"2009-01-01 01:42:30",501687,6.337,300.6,12.87,1.213,10.24,103.8241,9.06,10.15,11.29,0,110,13.41,9.85,262.6
"2009-01-01 01:43:00",501688,5.126,284.2,12.28,0.786,9.01,103.797,8.99,10.05,11.23,0,110,13.42,9.78,246.2
"2009-01-01 01:43:30",501689,5.785,292.5,17.28,1.473,10.92,103.7953,8.99,10.14,11.39,0,110,13.42,9.77,254.5
"2009-01-01 01:44:00",501690,6.742,294,11.13,1.259,12.25,103.7953,8.99,10.17,11.45,0,110,13.42,9.77,256.0
"2009-01-01 01:44:30",501691,6.214,288.8,8.18,1.409,10.85,103.7953,8.99,10.06,11.42,0,110,13.42,9.77,250.8
"2009-01-01 01:45:00",501692,5.699,296.4,8.69,1.703,9.44,103.7953,8.99,10.08,11.43,0,110,13.41,9.77,258.4
"2009-01-01 01:45:30",501693,6.676,305.8,5.634,1.265,10.4,103.7936,8.99,10.02,11.5,0,110,13.41,9.77,267.8
"2009-01-01 01:46:00",501694,7.894,294.5,13.64,1.576,10.69,103.7818,8.96,10.06,11.47,0,110,13.41,9.74,256.5
"2009-01-01 01:46:30",501695,9.77,296.4,15.12,1.706,11.72,103.7869,8.97,10.08,11.37,0,110,13.41,9.75,258.4
"2009-01-01 01:47:00",501696,7.861,305.7,14.61,1.566,11.92,103.795,8.99,10.14,11.4,0,110,13.41,9.77,267.7
"2009-01-01 01:47:30",501697,7.525,295.5,13.04,1.793,12.36,103.7959,8.99,10.15,11.49,0,110,13.41,9.78,257.5
"2009-01-01 01:48:00",501698,9.61,295.1,8.03,1.695,9.6,103.7959,8.99,10.03,11.37,0,110,13.41,9.78,257.1
"2009-01-01 01:48:30",501699,10.46,290.3,14.3,2.446,10.74,103.7956,8.99,10.03,11.29,0,110,13.41,9.77,252.3
"2009-01-01 01:49:00",501700,9,330.4,13.76,2.065,10.89,103.7965,8.99,9.98,11.37,0,110,13.41,9.78,292.4
"2009-01-01 01:49:30",501701,8.38,320.3,12.07,1.889,12.36,103.7826,8.96,10.14,11.51,0,110,13.41,9.74,282.3
"2009-01-01 01:50:00",501702,8.3,304,16.92,1.081,12.24,103.7638,8.91,10.1,11.59,0,110,13.41,9.69,266.0
"2009-01-01 01:50:30",501703,9.18,305.5,9.71,1.866,11.89,103.7607,8.9,10.08,11.67,0,110,13.42,9.69,267.5
"2009-01-01 01:51:00",501704,11.64,299.8,5.312,1.576,9.94,103.7536,8.88,9.9,11.35,0,110,13.42,9.67,261.8
"2009-01-01 01:51:30",501705,11.86,294,9.58,1.954,10.07,103.7653,8.91,9.83,11.29,0,110.1,13.42,9.70,256.0
"2009-01-01 01:52:00",501706,8.45,301.1,13.39,1.382,11.39,103.7492,8.87,10.07,11.63,0,110,13.42,9.66,263.1